{"data":{"norad_id":62956,"epoch":"2026-09-21T20:18:53.407008Z","epoch_age_seconds":49082,"freshness":"FRESH","line1":"1 62956U 25029J   26264.84645147  .00017495  00000+0  52758-3 0  9990","line2":"2 62956  53.1592  35.4011 0001139  77.6372 282.4758 15.34408175 91447","mean_motion":15.34408175,"eccentricity":0.0001139,"inclination_deg":53.1592,"raan_deg":35.4011,"arg_perigee_deg":77.6372,"mean_anomaly_deg":282.4758,"bstar":0.00052758,"rev_number":9144,"period_min":93.847258080465,"perigee_km":461.89977355633,"apogee_km":463.45811142803,"semimajor_km":6840.8159424922,"source":"CELESTRAK","updated_at":"2026-09-22T09:00:49.712624Z"}}